Temp
-14 -14 -14 -14 -14 -14 -14 -14 -14 -14 -13 -13 -13 -13 -13 -13 -13 -13 -13 -13 -13 -13 -13 -13 -13 -13 -13 -13 -13 -13 -13 -13 -13 -13 -13 -13 -13 -13 -13 -13 -13 -13 -13 -13 -13 -13 -13 -13 -14 -14 -14 -14 -14 -14 -14 -14 -14 -13 -13 -13 -13 -13 -13
-14 -14 -14 -14 -14 -14 -14 -14 -14 -14 -14 -14 -14 -14 -14 -13 -13 -13 -13 -13 -13 -13 -13 -13 -13 -13 -13 -13 -13 -13 -13 -13 -13 -13 -13 -13 -13 -13 -13 -13 -13 -13 -14 -14 -13 -13 -13 -13 -13 -14 -14 -14 -14 -14 -13 -13 -14 -14 -13 -13 -13 -13 -13
-15 -14 -14 -14 -14 -14 -14 -14 -14 -14 -14 -14 -14 -14 -14 -14 -14 -14 -14 -14 -13 -13 -13 -13 -13 -13 -13 -13 -13 -13 -13 -13 -13 -13 -13 -13 -13 -13 -13 -13 -13 -13 -13 -14 -14 -14 -13 -13 -13 -13 -13 -13 -13 -13 -14 -13 -13 -14 -14 -13 -13 -13 -13
-15 -15 -15 -15 -14 -14 -14 -14 -14 -14 -14 -14 -14 -14 -14 -14 -14 -14 -14 -14 -14 -14 -14 -14 -14 -14 -13 -13 -13 -13 -13 -13 -13 -13 -13 -13 -13 -13 -13 -13 -13 -13 -13 -13 -14 -14 -14 -14 -13 -13 -13 -13 -13 -13 -13 -14 -14 -14 -14 -13 -13 -13 -13
-15 -15 -15 -15 -15 -15 -15 -15 -14 -14 -14 -14 -15 -15 -15 -15 -15 -15 -14 -14 -14 -14 -14 -14 -14 -14 -14 -14 -14 -14 -14 -13 -13 -13 -13 -13 -13 -13 -13 -13 -13 -13 -13 -13 -13 -13 -13 -13 -13 -13 -13 -13 -13 -13 -13 -13 -14 -14 -14 -14 -13 -13 -13
-15 -15 -15 -15 -15 -15 -15 -15 -15 -15 -15 -15 -15 -15 -15 -15 -15 -15 -15 -15 -15 -15 -15 -14 -14 -14 -14 -14 -14 -14 -14 -14 -14 -14 -14 -14 -13 -13 -13 -13 -13 -13 -13 -13 -13 -13 -13 -13 -13 -13 -13 -13 -13 -13 -13 -13 -13 -14 -14 -14 -14 -14 -14
-16 -16 -16 -16 -15 -15 -15 -15 -15 -15 -15 -15 -15 -15 -15 -15 -15 -15 -15 -15 -15 -15 -15 -15 -15 -15 -15 -15 -14 -14 -14 -14 -14 -14 -14 -14 -14 -14 -14 -14 -14 -13 -13 -13 -13 -13 -13 -13 -13 -13 -13 -13 -13 -13 -13 -13 -13 -13 -14 -13 -13 -13 -13
-16 -16 -16 -16 -16 -16 -16 -16 -16 -16 -16 -15 -15 -15 -15 -15 -15 -15 -15 -15 -15 -15 -15 -15 -15 -15 -15 -15 -15 -15 -15 -15 -15 -15 -14 -14 -14 -14 -14 -14 -14 -14 -14 -14 -13 -13 -13 -13 -13 -13 -13 -13 -13 -13 -13 -14 -14 -14 -13 -13 -13 -13 -13
-16 -16 -16 -16 -16 -16 -16 -16 -16 -16 -16 -16 -16 -16 -16 -16 -16 -16 -16 -16 -16 -15 -15 -15 -15 -15 -15 -15 -15 -15 -15 -15 -15 -15 -15 -15 -15 -15 -15 -14 -14 -14 -14 -14 -14 -14 -13 -13 -13 -13 -13 -13 -13 -13 -14 -14 -14 -14 -14 -14 -13 -13 -13
-16 -16 -16 -16 -16 -16 -16 -16 -16 -16 -16 -16 -16 -16 -16 -16 -16 -16 -16 -16 -16 -16 -16 -16 -16 -16 -16 -16 -15 -15 -15 -15 -15 -15 -15 -15 -15 -15 -15 -15 -15 -14 -14 -14 -14 -14 -14 -14 -14 -13 -13 -13 -13 -14 -14 -14 -14 -14 -14 -14 -14 -13 -13
-17 -17 -16 -16 -16 -16 -16 -16 -16 -16 -16 -16 -16 -16 -16 -16 -16 -16 -16 -16 -16 -16 -16 -16 -16 -16 -16 -16 -16 -16 -16 -16 -16 -16 -16 -16 -15 -15 -15 -15 -15 -15 -15 -15 -14 -14 -14 -14 -14 -14 -14 -14 -14 -13 -14 -14 -14 -14 -14 -14 -14 -14 -13
-17 -17 -17 -17 -17 -17 -17 -17 -17 -16 -16 -16 -16 -16 -16 -16 -16 -16 -16 -16 -16 -16 -16 -16 -16 -16 -16 -16 -16 -16 -16 -16 -16 -16 -16 -16 -16 -16 -15 -15 -15 -15 -15 -15 -15 -15 -14 -14 -14 -14 -14 -14 -14 -14 -14 -14 -14 -14 -14 -14 -14 -14 -14
-18 -17 -17 -17 -17 -17 -17 -17 -17 -17 -17 -17 -17 -17 -17 -17 -16 -16 -16 -16 -16 -16 -16 -16 -16 -16 -16 -16 -16 -16 -16 -16 -16 -16 -16 -16 -16 -16 -16 -16 -16 -15 -15 -15 -15 -15 -15 -15 -14 -14 -14 -14 -14 -14 -14 -14 -14 -14 -14 -14 -14 -14 -14
-18 -18 -18 -18 -17 -17 -17 -17 -17 -17 -17 -17 -17 -17 -17 -17 -17 -17 -17 -17 -17 -17 -17 -17 -17 -17 -17 -17 -17 -17 -17 -17 -17 -16 -16 -16 -16 -16 -16 -16 -16 -16 -16 -15 -15 -15 -15 -15 -15 -15 -14 -14 -14 -14 -14 -14 -14 -14 -14 -14 -14 -14 -14
-18 -18 -18 -18 -18 -18 -18 -18 -17 -17 -17 -17 -17 -18 -18 -17 -17 -17 -17 -17 -17 -17 -17 -17 -17 -17 -17 -17 -17 -17 -17 -17 -17 -17 -17 -17 -17 -17 -16 -16 -16 -16 -16 -16 -16 -15 -15 -15 -15 -15 -15 -15 -14 -14 -14 -14 -14 -14 -14 -14 -14 -14 -14
-18 -18 -18 -18 -18 -18 -18 -18 -18 -17 -17 -17 -17 -17 -17 -17 -18 -17 -17 -17 -17 -17 -17 -17 -17 -17 -17 -17 -17 -17 -17 -17 -17 -17 -17 -17 -17 -17 -17 -16 -16 -16 -16 -16 -16 -16 -15 -15 -15 -15 -15 -15 -15 -14 -14 -14 -14 -14 -14 -14 -14 -14 -14
-18 -18 -18 -18 -18 -18 -18 -18 -18 -17 -17 -17 -17 -17 -17 -17 -17 -17 -17 -17 -17 -17 -17 -17 -17 -17 -17 -17 -17 -17 -18 -18 -17 -17 -17 -17 -17 -17 -17 -17 -16 -16 -16 -16 -16 -16 -15 -15 -15 -15 -15 -15 -15 -15 -14 -14 -14 -14 -14 -14 -14 -14 -14
-18 -18 -18 -18 -18 -18 -18 -18 -18 -17 -17 -17 -17 -17 -17 -17 -17 -17 -18 -18 -18 -17 -17 -17 -17 -17 -17 -17 -17 -17 -17 -17 -18 -17 -17 -17 -17 -17 -17 -17 -17 -17 -17 -16 -16 -16 -16 -16 -15 -15 -15 -15 -15 -15 -15 -14 -14 -14 -14 -15 -15 -15 -14
-18 -18 -18 -18 -18 -18 -18 -18 -18 -17 -17 -17 -17 -17 -17 -17 -17 -17 -18 -18 -18 -18 -17 -17 -17 -18 -18 -18 -18 -17 -17 -18 -18 -18 -17 -17 -17 -17 -17 -17 -17 -17 -17 -17 -17 -16 -16 -16 -16 -16 -16 -16 -15 -15 -15 -15 -15 -15 -15 -15 -15 -15 -15
-18 -18 -18 -18 -18 -18 -18 -18 -18 -17 -18 -18 -18 -18 -18 -18 -17 -17 -18 -18 -18 -18 -18 -18 -18 -18 -18 -18 -18 -18 -18 -18 -18 -17 -17 -17 -17 -17 -17 -17 -17 -17 -17 -17 -17 -17 -17 -17 -17 -16 -16 -16 -16 -16 -16 -16 -15 -15 -15 -15 -15 -16 -16
-19 -19 -19 -19 -19 -19 -18 -18 -18 -18 -18 -18 -18 -18 -19 -18 -18 -18 -18 -18 -18 -18 -18 -18 -18 -18 -18 -18 -18 -18 -18 -18 -18 -17 -17 -17 -17 -17 -17 -17 -17 -17 -17 -17 -17 -17 -17 -17 -17 -17 -17 -17 -16 -16 -16 -16 -16 -16 -16 -15 -15 -16 -16
-19 -19 -19 -19 -19 -19 -19 -18 -18 -18 -18 -18 -18 -19 -19 -19 -18 -18 -18 -18 -18 -18 -18 -18 -18 -18 -18 -18 -18 -18 -18 -18 -18 -17 -17 -17 -17 -17 -17 -17 -17 -17 -17 -17 -17 -17 -17 -17 -17 -17 -17 -17 -17 -16 -16 -16 -16 -16 -16 -16 -16 -16 -16
-19 -19 -19 -19 -19 -19 -19 -19 -18 -18 -18 -18 -18 -19 -19 -19 -19 -19 -19 -18 -18 -18 -18 -18 -18 -18 -18 -18 -18 -18 -18 -18 -18 -18 -18 -18 -18 -18 -18 -18 -18 -17 -17 -17 -17 -17 -18 -17 -17 -17 -17 -17 -17 -17 -16 -16 -16 -16 -16 -16 -16 -16 -16
-20 -20 -20 -19 -19 -19 -19 -19 -19 -19 -18 -18 -18 -19 -19 -19 -19 -19 -19 -19 -18 -18 -19 -19 -19 -19 -19 -19 -18 -18 -18 -18 -18 -18 -18 -18 -18 -18 -18 -18 -18 -18 -18 -17 -17 -17 -17 -18 -18 -17 -17 -17 -17 -17 -17 -17 -16 -16 -16 -16 -16 -16 -16
-20 -20 -20 -20 -19 -19 -19 -19 -19 -19 -19 -19 -19 -19 -19 -19 -19 -19 -19 -19 -19 -19 -19 -19 -19 -19 -19 -19 -19 -18 -18 -19 -18 -18 -18 -18 -18 -18 -18 -18 -18 -18 -18 -18 -17 -17 -17 -17 -18 -17 -17 -17 -17 -17 -17 -17 -17 -17 -17 -17 -17 -17 -17
-20 -20 -20 -20 -19 -19 -19 -19 -19 -19 -19 -19 -19 -19 -19 -19 -19 -19 -19 -19 -19 -19 -19 -19 -19 -19 -19 -19 -19 -18 -19 -19 -19 -18 -18 -18 -18 -18 -18 -18 -18 -18 -18 -18 -18 -17 -17 -17 -17 -17 -17 -17 -17 -17 -17 -17 -17 -17 -17 -17 -17 -17 -17
-20 -20 -20 -20 -20 -19 -19 -19 -19 -19 -19 -19 -19 -19 -19 -19 -19 -19 -19 -19 -19 -19 -19 -19 -19 -19 -19 -19 -19 -19 -19 -19 -19 -18 -18 -18 -18 -18 -18 -18 -18 -18 -18 -18 -18 -18 -17 -17 -17 -17 -18 -17 -17 -17 -17 -17 -17 -17 -17 -17 -17 -17 -17
-20 -20 -20 -20 -20 -20 -20 -20 -20 -19 -19 -19 -19 -19 -19 -19 -19 -19 -19 -19 -20 -19 -19 -19 -19 -19 -19 -19 -19 -19 -19 -19 -19 -18 -18 -18 -18 -18 -18 -18 -18 -18 -18 -18 -18 -18 -18 -17 -17 -17 -18 -18 -18 -17 -17 -17 -17 -17 -17 -17 -17 -17 -17
-20 -20 -20 -20 -20 -20 -20 -20 -20 -20 -20 -20 -20 -19 -19 -19 -19 -19 -19 -19 -19 -19 -20 -19 -19 -19 -19 -19 -19 -19 -19 -19 -19 -18 -18 -18 -18 -18 -18 -18 -18 -18 -18 -18 -18 -18 -18 -17 -17 -17 -18 -18 -18 -17 -17 -17 -18 -18 -18 -18 -17 -17 -17
-20 -20 -20 -20 -20 -20 -20 -20 -20 -20 -20 -20 -20 -20 -20 -20 -20 -20 -19 -19 -19 -20 -20 -19 -19 -19 -19 -19 -20 -20 -20 -19 -19 -19 -19 -18 -18 -18 -18 -18 -18 -18 -18 -18 -18 -18 -18 -17 -17 -18 -18 -18 -18 -18 -18 -18 -18 -18 -18 -18 -18 -17 -17
-20 -20 -21 -21 -21 -21 -20 -20 -20 -20 -20 -20 -20 -20 -20 -20 -20 -20 -20 -20 -20 -20 -20 -20 -20 -20 -20 -20 -20 -20 -20 -19 -19 -19 -19 -19 -19 -18 -18 -18 -18 -18 -18 -18 -18 -18 -18 -18 -18 -18 -18 -18 -18 -18 -18 -18 -18 -18 -18 -18 -18 -18 -18
-21 -21 -21 -21 -21 -21 -21 -21 -21 -20 -20 -20 -20 -20 -20 -20 -20 -20 -20 -20 -20 -20 -20 -20 -20 -20 -20 -20 -20 -20 -20 -19 -19 -19 -19 -19 -19 -19 -19 -19 -19 -19 -19 -18 -18 -18 -18 -18 -18 -18 -18 -18 -18 -18 -18 -18 -18 -18 -18 -18 -18 -18 -18
-21 -21 -21 -21 -21 -21 -21 -21 -21 -21 -21 -21 -20 -20 -20 -20 -20 -20 -20 -20 -20 -20 -21 -21 -21 -21 -21 -20 -20 -20 -20 -20 -20 -20 -20 -19 -19 -19 -19 -19 -19 -19 -19 -19 -19 -18 -18 -18 -18 -18 -18 -18 -18 -18 -18 -18 -18 -18 -18 -18 -18 -18 -18
-21 -21 -21 -21 -21 -21 -21 -21 -21 -21 -21 -21 -20 -20 -20 -20 -21 -21 -21 -21 -21 -21 -21 -21 -21 -21 -21 -21 -20 -20 -20 -20 -20 -20 -20 -20 -19 -19 -19 -19 -19 -19 -19 -19 -19 -19 -19 -19 -18 -18 -18 -18 -18 -18 -18 -18 -18 -18 -18 -18 -18 -18 -18
-21 -21 -21 -21 -21 -21 -21 -21 -21 -21 -21 -21 -21 -21 -21 -21 -21 -21 -21 -21 -21 -21 -21 -21 -21 -21 -21 -21 -21 -21 -20 -20 -20 -20 -20 -20 -20 -20 -20 -20 -20 -20 -20 -19 -19 -19 -19 -18 -18 -18 -18 -18 -18 -18 -18 -18 -18 -18 -18 -18 -18 -18 -18
-21 -21 -21 -21 -21 -21 -21 -21 -21 -21 -21 -21 -21 -21 -21 -21 -21 -21 -21 -21 -21 -21 -21 -21 -21 -21 -21 -21 -21 -21 -21 -20 -20 -20 -20 -20 -20 -20 -20 -20 -20 -20 -20 -19 -19 -19 -19 -18 -18 -18 -18 -18 -18 -18 -18 -18 -18 -18 -18 -18 -18 -19 -19
-21 -21 -21 -21 -21 -21 -21 -21 -21 -21 -21 -21 -21 -21 -22 -22 -22 -22 -21 -21 -21 -21 -22 -21 -21 -21 -21 -21 -21 -21 -21 -21 -21 -21 -20 -20 -20 -20 -20 -20 -20 -20 -20 -19 -19 -19 -19 -19 -18 -18 -18 -18 -18 -18 -18 -18 -18 -19 -19 -19 -19 -19 -19
Height
5754 5754 5754 5755 5755 5755 5755 5755 5755 5756 5756 5757 5757 5757 5757 5757 5757 5757 5758 5759 5759 5759 5760 5761 5762 5762 5763 5763 5764 5765 5765 5766 5767 5768 5770 5771 5771 5772 5773 5774 5775 5775 5776 5776 5778 5779 5780 5780 5781 5783 5785 5787 5789 5791 5793 5794 5796 5797 5798 5799 5800 5801 5803
5751 5752 5752 5752 5752 5753 5753 5753 5753 5753 5753 5754 5754 5754 5754 5754 5754 5755 5755 5756 5756 5757 5757 5758 5759 5759 5760 5761 5761 5762 5762 5763 5764 5765 5766 5767 5768 5769 5770 5771 5772 5772 5773 5773 5774 5776 5777 5778 5779 5781 5783 5784 5785 5788 5789 5790 5792 5793 5794 5795 5796 5797 5798
5748 5749 5749 5749 5750 5750 5750 5750 5750 5750 5751 5751 5751 5751 5751 5752 5752 5752 5753 5753 5754 5754 5755 5755 5756 5757 5757 5758 5759 5759 5759 5760 5761 5762 5762 5764 5764 5765 5766 5767 5768 5769 5770 5770 5771 5772 5773 5775 5776 5778 5779 5780 5781 5783 5784 5785 5787 5788 5789 5791 5792 5793 5794
5745 5746 5746 5746 5747 5747 5747 5747 5747 5748 5748 5748 5748 5749 5749 5749 5749 5750 5750 5751 5751 5752 5752 5753 5753 5754 5755 5755 5756 5756 5757 5757 5758 5759 5759 5760 5761 5762 5763 5764 5764 5765 5766 5767 5768 5769 5770 5771 5772 5774 5775 5776 5777 5778 5779 5781 5782 5783 5784 5786 5788 5789 5790
5742 5742 5743 5743 5744 5744 5744 5744 5744 5745 5745 5745 5745 5746 5746 5747 5747 5747 5748 5748 5749 5749 5749 5750 5751 5751 5752 5752 5753 5754 5754 5755 5755 5756 5756 5757 5758 5759 5759 5760 5761 5762 5763 5764 5765 5766 5767 5768 5769 5770 5771 5772 5773 5774 5775 5776 5777 5779 5780 5781 5783 5784 5784
5738 5739 5740 5740 5741 5741 5741 5741 5741 5742 5742 5743 5743 5743 5743 5744 5744 5745 5745 5746 5746 5747 5747 5748 5748 5749 5749 5750 5750 5751 5751 5752 5753 5753 5754 5755 5755 5756 5757 5757 5758 5759 5760 5761 5762 5763 5763 5764 5765 5766 5767 5768 5769 5770 5771 5772 5773 5774 5775 5776 5778 5779 5779
5735 5736 5736 5737 5738 5738 5738 5739 5739 5739 5739 5740 5740 5740 5740 5741 5741 5742 5742 5743 5743 5744 5744 5745 5746 5746 5747 5747 5748 5748 5749 5749 5750 5751 5751 5752 5753 5753 5754 5755 5755 5756 5757 5757 5758 5759 5760 5761 5762 5763 5764 5764 5766 5767 5767 5768 5769 5770 5770 5771 5773 5774 5775
5732 5733 5733 5734 5735 5735 5736 5736 5736 5736 5737 5737 5737 5737 5738 5738 5738 5739 5739 5740 5740 5741 5741 5742 5743 5744 5744 5745 5746 5746 5747 5747 5748 5748 5749 5749 5750 5750 5751 5752 5753 5753 5754 5754 5755 5756 5756 5757 5758 5759 5760 5761 5762 5763 5764 5764 5765 5765 5766 5767 5767 5768 5770
5729 5730 5730 5731 5732 5732 5733 5733 5734 5734 5734 5734 5735 5735 5735 5735 5735 5735 5736 5736 5737 5738 5738 5739 5740 5741 5741 5742 5743 5744 5744 5744 5745 5745 5746 5747 5747 5748 5748 5749 5750 5750 5751 5751 5752 5752 5753 5753 5754 5755 5756 5757 5758 5759 5760 5761 5761 5761 5762 5762 5762 5763 5764
5727 5727 5728 5728 5729 5729 5730 5730 5731 5731 5732 5732 5732 5732 5732 5732 5733 5733 5733 5733 5734 5734 5735 5736 5736 5737 5738 5739 5740 5740 5741 5742 5742 5743 5743 5744 5744 5745 5746 5746 5747 5747 5748 5749 5749 5749 5750 5750 5751 5751 5752 5753 5755 5756 5757 5757 5758 5758 5758 5758 5758 5758 5759
5724 5724 5725 5726 5726 5726 5727 5727 5728 5728 5729 5729 5729 5730 5730 5730 5730 5730 5730 5731 5731 5731 5732 5733 5734 5734 5735 5736 5737 5737 5738 5739 5739 5740 5740 5741 5741 5742 5742 5743 5743 5744 5744 5745 5746 5746 5747 5748 5748 5748 5749 5750 5751 5752 5753 5754 5754 5754 5755 5755 5755 5755 5755
5721 5721 5722 5723 5723 5723 5723 5724 5724 5724 5725 5725 5726 5726 5726 5727 5727 5727 5727 5728 5728 5729 5729 5730 5730 5731 5732 5733 5734 5734 5735 5736 5736 5737 5737 5737 5737 5738 5738 5739 5739 5740 5741 5741 5742 5743 5743 5744 5745 5745 5746 5746 5747 5748 5749 5751 5751 5751 5751 5751 5751 5751 5751
5718 5719 5719 5720 5720 5720 5720 5720 5721 5721 5722 5722 5722 5722 5723 5723 5724 5724 5724 5724 5725 5725 5726 5726 5727 5728 5729 5730 5730 5731 5731 5732 5732 5733 5733 5734 5734 5734 5734 5735 5735 5736 5736 5737 5737 5738 5739 5740 5740 5741 5741 5742 5743 5744 5745 5747 5748 5747 5747 5748 5748 5747 5748
5715 5716 5716 5717 5717 5717 5717 5717 5717 5718 5719 5719 5719 5719 5720 5720 5720 5720 5721 5721 5721 5722 5722 5723 5723 5724 5725 5726 5726 5727 5727 5728 5728 5729 5729 5729 5730 5730 5730 5731 5731 5731 5732 5733 5733 5734 5734 5735 5735 5736 5736 5737 5738 5739 5740 5742 5744 5744 5743 5743 5744 5744 5744
5712 5713 5713 5714 5714 5714 5714 5714 5714 5715 5715 5716 5716 5717 5717 5717 5717 5718 5718 5718 5718 5718 5719 5719 5720 5720 5721 5722 5722 5722 5723 5723 5724 5724 5725 5725 5725 5725 5726 5726 5726 5727 5727 5728 5728 5729 5729 5730 5730 5731 5731 5732 5732 5733 5734 5736 5738 5739 5739 5739 5739 5739 5739
5709 5709 5710 5710 5710 5710 5710 5711 5711 5711 5712 5712 5713 5713 5714 5714 5715 5715 5715 5715 5715 5715 5715 5716 5716 5716 5717 5717 5717 5718 5718 5719 5719 5719 5720 5720 5720 5720 5720 5721 5721 5722 5722 5723 5723 5724 5724 5725 5725 5726 5726 5727 5727 5728 5728 5729 5731 5732 5733 5733 5733 5733 5734
5705 5706 5706 5707 5707 5707 5707 5707 5708 5708 5708 5709 5709 5710 5710 5711 5711 5712 5712 5712 5712 5712 5712 5712 5713 5713 5713 5713 5713 5713 5713 5714 5714 5714 5715 5715 5715 5715 5715 5715 5716 5716 5716 5717 5717 5718 5719 5719 5720 5720 5720 5721 5721 5722 5722 5723 5724 5725 5727 5728 5727 5727 5728
5701 5702 5702 5703 5703 5703 5703 5704 5704 5705 5705 5705 5705 5705 5706 5706 5707 5707 5708 5708 5708 5708 5708 5708 5709 5709 5708 5708 5708 5708 5709 5709 5709 5709 5710 5710 5710 5710 5710 5710 5710 5710 5710 5710 5711 5711 5712 5713 5713 5714 5714 5714 5715 5715 5716 5716 5717 5718 5720 5721 5721 5721 5721
5696 5696 5697 5698 5699 5699 5700 5700 5701 5701 5702 5701 5700 5700 5701 5701 5702 5703 5703 5703 5703 5704 5704 5704 5704 5704 5704 5704 5704 5704 5704 5704 5704 5705 5705 5705 5705 5705 5705 5705 5705 5705 5705 5705 5705 5705 5705 5706 5706 5707 5707 5708 5708 5709 5710 5710 5710 5712 5713 5715 5715 5715 5715
5690 5691 5691 5693 5694 5694 5695 5696 5696 5697 5696 5695 5695 5695 5695 5695 5696 5697 5698 5699 5699 5699 5699 5700 5700 5699 5699 5699 5699 5699 5699 5699 5699 5700 5700 5700 5701 5701 5701 5700 5700 5700 5701 5701 5701 5701 5700 5700 5700 5701 5701 5701 5701 5702 5703 5704 5704 5705 5706 5707 5709 5709 5709
5686 5686 5686 5687 5688 5689 5689 5691 5691 5692 5691 5691 5690 5690 5689 5689 5690 5692 5693 5694 5694 5694 5694 5695 5695 5695 5695 5695 5695 5695 5694 5694 5695 5695 5695 5695 5695 5695 5695 5695 5695 5695 5695 5696 5696 5696 5696 5696 5696 5696 5695 5695 5695 5696 5696 5697 5698 5699 5699 5700 5702 5703 5703
5680 5681 5681 5681 5682 5683 5684 5685 5686 5686 5686 5686 5685 5684 5684 5683 5684 5685 5687 5688 5689 5689 5689 5690 5690 5690 5690 5690 5690 5689 5689 5689 5689 5690 5690 5690 5690 5690 5690 5690 5690 5690 5689 5690 5690 5690 5690 5690 5691 5691 5691 5690 5690 5690 5691 5691 5692 5692 5693 5693 5695 5696 5697
5675 5675 5676 5676 5676 5677 5678 5678 5679 5680 5680 5680 5679 5680 5680 5679 5678 5679 5680 5682 5683 5683 5683 5684 5684 5684 5684 5684 5684 5683 5683 5683 5684 5684 5684 5684 5684 5683 5683 5683 5684 5684 5683 5683 5683 5683 5683 5683 5684 5684 5685 5685 5685 5685 5685 5685 5686 5686 5686 5687 5688 5688 5689
5669 5670 5670 5670 5671 5672 5672 5673 5673 5673 5674 5674 5673 5673 5674 5674 5674 5673 5674 5675 5676 5676 5676 5677 5678 5678 5678 5678 5677 5677 5677 5677 5677 5677 5678 5677 5677 5677 5677 5677 5677 5677 5677 5676 5676 5676 5676 5676 5676 5677 5678 5678 5679 5679 5679 5679 5679 5680 5680 5681 5681 5681 5682
5662 5663 5663 5664 5664 5665 5666 5667 5667 5667 5667 5667 5667 5667 5667 5668 5668 5667 5667 5668 5669 5669 5669 5670 5671 5671 5671 5671 5671 5670 5670 5670 5670 5671 5671 5671 5671 5671 5671 5671 5670 5670 5670 5669 5669 5669 5669 5669 5669 5669 5670 5671 5671 5672 5672 5672 5672 5673 5673 5673 5674 5675 5675
5655 5656 5656 5657 5657 5658 5659 5660 5660 5660 5660 5661 5661 5660 5660 5661 5661 5660 5660 5660 5661 5662 5663 5663 5664 5663 5663 5664 5664 5664 5664 5663 5664 5664 5664 5664 5664 5664 5664 5664 5664 5664 5663 5662 5662 5662 5661 5661 5661 5662 5662 5663 5663 5664 5664 5664 5664 5664 5665 5665 5666 5667 5667
5647 5647 5648 5649 5650 5651 5652 5652 5653 5653 5654 5654 5654 5654 5654 5654 5654 5653 5653 5653 5654 5655 5656 5656 5656 5656 5656 5657 5658 5658 5658 5657 5657 5657 5657 5657 5657 5658 5657 5657 5657 5657 5657 5656 5655 5654 5654 5654 5654 5654 5655 5655 5656 5656 5656 5656 5656 5656 5656 5657 5658 5659 5659
5639 5639 5640 5641 5642 5643 5643 5644 5645 5646 5646 5646 5646 5646 5647 5647 5647 5646 5646 5646 5647 5648 5648 5649 5649 5649 5649 5649 5650 5651 5652 5651 5651 5650 5650 5650 5650 5650 5650 5650 5650 5650 5650 5649 5648 5647 5647 5646 5647 5647 5647 5648 5648 5648 5648 5648 5647 5647 5647 5647 5648 5649 5649
5631 5632 5632 5633 5634 5634 5635 5636 5637 5638 5639 5639 5639 5639 5639 5639 5639 5639 5639 5640 5640 5641 5641 5641 5642 5642 5642 5642 5643 5644 5644 5644 5644 5643 5643 5642 5642 5643 5642 5642 5642 5642 5642 5641 5640 5640 5639 5639 5639 5639 5639 5640 5640 5640 5640 5639 5639 5639 5638 5638 5638 5639 5639
5623 5624 5625 5625 5626 5626 5627 5628 5628 5629 5630 5631 5631 5631 5632 5631 5631 5632 5633 5633 5633 5633 5634 5634 5635 5635 5635 5635 5636 5636 5636 5636 5636 5635 5635 5635 5635 5634 5634 5633 5633 5633 5633 5633 5632 5631 5631 5630 5631 5631 5631 5632 5632 5632 5632 5631 5630 5629 5629 5628 5628 5628 5628
5615 5616 5617 5617 5618 5618 5619 5620 5620 5621 5622 5622 5623 5624 5624 5624 5624 5625 5626 5626 5626 5626 5626 5627 5627 5628 5628 5628 5628 5628 5628 5628 5627 5627 5627 5627 5626 5626 5625 5625 5624 5624 5624 5623 5623 5623 5622 5622 5622 5623 5623 5623 5623 5624 5623 5621 5620 5619 5618 5618 5617 5617 5617
5607 5608 5609 5609 5610 5610 5611 5612 5613 5614 5614 5615 5615 5616 5616 5617 5617 5618 5618 5618 5619 5619 5620 5620 5620 5620 5620 5620 5620 5620 5619 5619 5619 5618 5618 5618 5618 5617 5616 5616 5615 5614 5614 5614 5613 5613 5613 5613 5613 5614 5614 5614 5615 5615 5613 5611 5610 5609 5608 5607 5606 5606 5606
5599 5599 5600 5601 5602 5602 5603 5604 5606 5607 5607 5607 5608 5609 5610 5611 5611 5611 5611 5611 5612 5613 5613 5613 5613 5613 5613 5613 5612 5612 5611 5611 5610 5610 5610 5609 5609 5609 5608 5607 5606 5606 5605 5605 5604 5604 5604 5604 5604 5605 5605 5605 5605 5604 5602 5600 5599 5598 5597 5597 5596 5596 5595
5590 5591 5592 5593 5594 5595 5596 5597 5598 5599 5600 5600 5601 5602 5604 5604 5604 5604 5604 5604 5605 5606 5606 5606 5606 5606 5606 5605 5605 5605 5604 5603 5602 5602 5602 5601 5600 5600 5599 5598 5598 5597 5596 5596 5596 5595 5595 5595 5595 5595 5595 5595 5594 5593 5591 5590 5588 5587 5586 5586 5586 5585 5584
5583 5584 5585 5586 5587 5588 5588 5589 5590 5591 5592 5593 5595 5596 5597 5598 5597 5598 5598 5598 5599 5600 5600 5599 5599 5599 5599 5599 5598 5597 5596 5595 5594 5593 5593 5592 5591 5590 5590 5589 5588 5588 5587 5587 5587 5586 5586 5585 5585 5585 5584 5583 5582 5581 5579 5578 5577 5575 5574 5574 5573 5573 5572
5575 5576 5577 5578 5579 5580 5581 5582 5583 5584 5585 5586 5588 5589 5590 5591 5591 5591 5592 5592 5592 5593 5593 5593 5593 5593 5593 5592 5590 5589 5588 5587 5585 5585 5584 5584 5583 5582 5581 5580 5579 5579 5578 5578 5577 5577 5576 5575 5574 5574 5573 5572 5570 5569 5568 5567 5565 5563 5562 5561 5560 5560 5559
5567 5568 5568 5570 5571 5572 5573 5575 5576 5577 5578 5579 5581 5582 5583 5584 5585 5586 5586 5586 5587 5587 5588 5588 5588 5587 5586 5585 5583 5582 5581 5579 5578 5577 5577 5576 5575 5574 5573 5571 5570 5570 5569 5568 5567 5566 5565 5565 5563 5563 5562 5560 5559 5558 5556 5555 5553 5551 5549 5548 5547 5546 5545
Wind_Speed
22 22 22 22 23 23 23 24 24 24 24 24 23 23 23 24 23 23 23 23 23 23 23 22 22 22 22 22 23 24 24 26 28 29 28 28 29 28 27 25 24 23 20 20 22 23 24 26 32 37 40 42 43 43 43 43 43 44 44 44 44 44 44
22 22 22 22 22 22 23 23 23 23 23 23 22 22 22 22 23 23 22 23 23 23 22 22 21 21 21 22 22 23 23 24 25 27 27 28 28 29 29 28 27 26 25 22 22 23 25 26 27 30 32 35 38 40 41 41 42 43 43 43 43 44 44
22 21 21 21 21 22 22 22 22 22 22 22 21 21 21 21 21 21 22 22 22 22 22 22 21 21 21 21 22 22 23 23 24 25 25 26 27 27 28 28 28 28 27 26 25 24 24 25 27 30 31 33 34 36 38 39 41 42 41 41 41 42 42
21 21 20 20 20 21 21 21 22 22 22 21 20 20 20 20 20 20 20 21 21 22 22 21 21 21 21 21 21 22 22 23 23 24 24 25 25 26 26 27 27 27 28 28 28 27 26 26 26 28 31 33 35 36 37 38 39 40 40 39 39 39 40
20 20 19 19 19 19 20 20 21 21 21 20 20 20 19 19 19 19 19 20 20 20 21 21 20 20 20 20 20 21 21 22 22 23 24 24 24 25 25 26 26 26 27 28 29 29 29 29 29 29 29 30 32 34 36 37 39 40 40 39 38 39 39
19 19 19 18 18 18 18 19 20 20 20 20 19 19 19 18 18 18 19 19 19 20 20 20 20 20 20 20 20 20 20 21 21 22 22 23 23 24 25 25 25 26 26 27 28 29 30 30 31 31 32 32 31 32 34 36 37 38 40 41 41 41 40
20 20 19 18 17 17 17 18 18 19 19 19 19 18 18 18 18 18 18 19 19 20 20 20 20 19 19 19 19 19 19 20 20 21 21 22 22 23 24 24 25 25 26 26 27 28 29 30 30 31 33 34 34 34 35 36 36 36 37 39 40 40 40
22 22 21 20 19 18 18 18 17 18 18 18 18 18 17 17 17 17 18 18 18 19 19 20 20 20 19 19 19 19 19 19 20 20 21 22 22 22 23 24 24 25 25 26 27 27 28 28 29 30 31 32 33 34 35 37 38 38 38 39 39 39 40
24 24 23 22 21 21 20 19 19 19 18 18 18 18 18 17 17 17 17 18 18 18 18 19 19 19 19 19 19 19 19 20 20 20 21 22 22 23 23 24 25 25 25 26 27 27 28 29 29 29 29 30 30 31 32 34 36 38 39 40 41 41 41
24 23 23 22 22 22 22 21 21 21 20 20 19 19 18 18 17 17 17 18 18 18 18 18 18 18 18 18 19 19 19 20 20 20 21 21 22 23 23 24 25 25 26 27 27 27 28 29 30 30 30 30 30 30 30 30 32 34 36 38 40 41 41
23 23 23 22 21 22 22 22 22 22 22 21 21 21 20 19 19 19 19 19 19 19 19 19 19 19 18 18 19 19 20 20 21 22 22 23 23 24 24 25 25 26 26 27 27 28 29 29 30 31 31 31 31 31 30 30 29 31 33 34 36 38 39
23 22 22 21 21 21 22 22 22 23 22 22 22 22 22 22 21 21 21 20 20 20 20 20 20 20 20 20 20 21 22 22 23 23 24 25 25 26 26 27 27 28 29 29 29 29 30 30 31 31 32 32 32 32 32 31 30 30 32 33 34 36 37
21 21 21 21 21 21 22 21 21 21 21 21 22 23 23 22 23 23 23 23 22 22 22 22 22 22 21 22 22 23 23 24 24 25 26 26 27 28 29 29 30 30 31 31 32 32 32 32 33 33 34 34 34 34 33 33 32 32 33 34 34 36 37
22 22 23 23 23 23 22 21 21 20 19 19 20 21 22 23 23 24 25 25 25 24 24 24 24 23 23 23 24 24 25 25 26 26 27 27 28 29 30 30 31 32 32 33 33 34 34 35 35 36 36 36 37 37 36 36 35 34 35 36 36 36 37
24 24 24 25 25 25 24 23 22 21 20 20 19 19 20 21 22 23 24 25 25 25 25 25 25 25 24 24 24 25 25 26 26 27 27 27 28 29 30 31 32 33 33 34 34 35 35 36 36 37 38 38 39 39 39 39 38 37 37 39 39 39 39
28 27 26 26 26 27 27 26 24 23 22 22 22 21 20 20 21 22 23 24 25 26 26 26 26 26 26 26 26 26 26 26 26 27 27 28 29 30 31 32 34 34 35 35 36 37 37 38 38 38 39 39 40 41 41 42 41 40 39 40 42 42 42
30 29 27 26 27 28 28 28 27 25 24 24 24 24 24 24 25 25 26 26 26 25 25 25 26 27 28 28 28 28 28 28 28 28 28 28 29 30 31 32 33 34 35 36 37 38 39 40 40 40 40 41 41 42 43 43 43 43 42 41 42 44 44
31 30 29 28 28 28 29 29 29 29 28 28 28 28 29 29 28 27 27 28 29 28 27 27 27 28 29 31 31 31 30 30 29 29 29 29 29 30 31 31 32 33 34 35 37 38 39 40 41 42 42 42 43 43 43 44 44 44 43 41 41 43 44
35 34 33 32 31 31 31 31 31 30 30 31 32 32 32 32 32 31 30 30 32 33 33 32 31 31 31 32 32 33 33 33 33 32 31 31 31 32 32 32 32 32 33 34 36 37 38 40 41 41 42 42 42 43 43 44 44 45 44 42 39 40 42
39 38 37 35 35 34 34 34 33 33 33 34 35 35 36 36 36 35 35 35 36 37 37 37 37 36 35 34 34 34 35 36 36 36 35 35 35 35 35 34 34 34 34 35 35 37 38 39 40 41 41 41 41 41 40 40 41 42 42 41 39 38 38
40 39 39 37 37 36 36 35 35 36 36 37 38 38 39 41 41 39 38 38 39 41 41 41 40 39 38 37 37 36 37 38 38 38 38 38 38 38 38 38 38 38 37 37 37 37 38 40 40 41 41 40 39 39 38 37 37 38 38 39 38 37 36
41 40 40 40 40 39 39 39 38 38 39 40 41 41 41 43 45 44 43 42 41 41 42 42 42 42 42 41 41 41 41 41 41 41 41 41 42 42 42 41 41 41 41 40 39 39 40 41 41 41 41 41 39 38 37 37 37 37 37 37 36 36 35
42 42 42 42 42 42 42 42 42 42 42 44 45 44 43 45 47 47 47 46 45 44 44 43 43 44 45 44 44 45 46 46 45 44 44 44 44 43 44 43 43 43 44 44 43 43 42 43 43 44 43 42 41 40 39 39 39 39 39 39 39 39 38
44 44 45 45 45 45 45 45 46 46 46 47 48 48 48 48 49 50 50 49 48 48 47 46 45 45 45 44 44 47 51 50 48 46 44 44 44 44 45 45 46 46 46 46 46 46 46 46 46 46 46 45 44 43 42 42 42 42 42 42 42 42 42
50 49 49 50 50 50 49 49 49 49 50 50 50 51 52 51 51 51 52 51 50 49 49 48 46 45 45 45 45 47 49 49 46 44 43 44 44 45 46 46 47 47 47 48 48 48 49 49 49 49 48 48 48 46 45 45 45 45 45 45 44 44 44
53 53 53 53 53 53 52 52 52 52 52 52 53 53 54 54 53 53 54 53 50 49 49 48 46 45 46 46 45 44 45 45 44 43 42 43 44 45 46 47 48 48 49 49 49 50 50 51 51 51 50 50 50 49 48 48 48 48 48 47 47 47 47
54 54 53 53 53 53 53 53 53 53 54 54 54 54 55 55 55 55 56 55 52 50 50 48 46 46 47 46 44 43 43 43 44 43 41 41 44 46 47 48 49 49 50 50 51 52 52 53 53 52 51 51 51 51 51 50 50 50 50 50 50 50 51
53 53 53 53 52 52 52 52 53 53 53 54 54 55 55 55 56 56 57 56 54 52 51 50 48 48 49 49 48 47 48 47 46 44 43 44 48 50 51 52 51 51 51 51 52 53 54 55 54 53 52 51 52 52 52 52 52 52 52 53 53 54 55
53 53 53 53 53 53 53 53 53 53 53 53 54 54 55 55 55 56 57 57 56 54 52 52 51 49 48 49 49 50 51 51 49 49 51 54 56 57 57 57 56 55 54 54 54 55 56 56 55 53 52 53 53 54 53 53 53 54 55 56 57 58 60
52 52 53 53 53 54 54 54 54 54 54 54 54 54 54 55 56 56 56 56 55 54 53 52 52 51 50 52 52 53 54 56 56 58 60 62 61 60 59 59 59 58 57 56 56 57 57 57 56 55 54 54 55 54 54 54 55 57 59 61 62 64 64
52 52 52 52 53 53 53 53 54 54 54 54 54 54 54 55 55 55 55 54 54 54 52 51 51 51 52 53 55 56 58 59 60 61 61 60 59 58 58 59 60 60 59 58 58 58 58 58 57 56 56 56 56 55 56 58 61 63 65 66 67 68 68
52 51 51 51 51 52 52 52 52 53 53 54 54 54 54 54 55 55 55 55 54 51 48 45 45 47 48 50 52 54 56 57 57 57 56 56 55 56 57 58 60 60 60 59 59 59 59 59 59 58 58 58 58 58 60 63 66 67 68 69 70 70 71
51 51 50 50 50 51 51 51 51 51 52 52 53 54 53 52 52 52 52 52 49 46 43 42 42 44 45 47 49 51 52 53 53 53 53 53 54 54 55 56 57 58 58 58 58 58 58 58 59 60 60 61 61 63 66 68 70 70 70 70 71 72 72
51 51 51 51 50 51 51 51 51 51 51 52 52 51 48 47 46 45 46 48 47 45 44 43 42 41 43 45 47 49 50 52 53 54 55 56 56 56 55 55 55 56 57 57 57 57 57 58 59 61 63 64 66 68 70 71 71 71 71 71 72 73 74
52 52 53 52 51 51 52 52 52 52 52 52 52 50 48 49 50 49 50 51 50 48 46 43 41 42 45 47 50 52 55 57 58 59 59 58 57 56 56 55 55 56 58 58 57 57 57 59 61 63 65 67 68 68 69 70 71 72 72 73 74 75 76
52 53 53 53 52 52 53 54 54 54 54 54 53 51 50 50 50 49 48 49 49 49 47 45 45 47 48 50 52 54 56 57 58 59 58 57 56 56 55 55 54 55 57 58 59 60 61 63 64 65 65 66 67 68 69 71 72 73 75 76 77 77 77
51 52 53 53 53 54 54 55 54 54 53 51 49 46 44 43 41 40 40 40 42 44 46 46 47 48 48 49 51 52 53 54 54 54 53 53 52 52 52 52 52 53 55 56 58 60 62 63 64 64 65 67 68 70 71 73 74 76 77 77 75 73 71
Wind_Direction
268 268 268 268 268 267 267 267 268 268 267 266 265 264 264 264 264 263 262 260 259 260 259 258 258 256 254 254 254 254 253 252 252 253 252 252 254 255 255 257 258 259 255 241 229 227 230 232 233 233 232 233 234 236 239 241 242 244 245 247 248 250 252
270 270 269 269 268 267 267 267 267 268 267 267 266 265 265 265 265 264 263 261 260 259 259 258 257 256 254 253 253 253 252 252 252 252 251 250 251 253 254 255 257 258 258 254 244 235 231 229 230 233 236 239 238 238 240 242 243 243 245 246 248 249 251
270 270 270 270 270 269 268 267 267 266 266 266 266 266 266 266 266 265 264 262 262 261 260 259 258 256 255 253 252 253 252 251 251 251 252 251 251 252 253 253 255 256 256 255 253 248 241 235 232 231 233 237 239 237 238 239 240 242 243 244 247 249 251
269 270 270 270 270 270 269 268 267 265 265 265 265 265 266 266 266 267 266 264 263 263 262 261 260 258 256 254 253 252 252 252 252 252 252 253 253 252 253 253 253 253 254 254 254 252 250 247 243 240 237 237 238 239 239 239 238 239 241 243 245 248 250
268 268 268 267 267 268 268 268 268 267 266 265 265 265 265 266 266 266 265 264 263 263 263 263 263 261 259 257 255 253 253 253 253 254 254 254 255 255 255 254 254 253 253 253 252 252 252 251 251 250 248 245 243 242 243 244 242 240 241 241 242 244 246
269 268 267 266 266 266 267 268 268 269 268 267 266 266 267 267 268 268 266 264 262 261 261 260 261 261 260 260 259 257 255 254 254 254 255 255 255 256 257 257 256 255 254 253 252 252 252 252 252 251 251 251 250 248 247 248 247 243 242 242 243 244 245
270 269 268 268 267 266 266 267 269 270 270 269 268 268 268 269 270 270 269 266 264 261 260 259 258 258 258 258 258 258 257 255 255 254 255 255 254 253 254 255 256 255 255 254 253 252 251 251 250 250 250 250 251 251 251 251 251 250 248 246 246 246 246
274 273 272 271 270 270 268 268 269 271 271 272 270 269 270 271 272 272 271 270 267 265 262 260 259 258 258 257 257 257 257 256 254 254 254 254 255 254 253 253 253 254 254 254 253 254 253 253 252 250 250 250 251 251 252 253 254 254 255 254 252 250 249
276 276 276 275 275 274 273 271 270 270 271 272 272 271 271 271 272 272 272 272 271 269 267 264 261 259 258 258 257 256 256 256 255 254 254 253 254 255 254 254 253 253 254 254 254 254 254 255 255 254 253 252 252 252 252 253 254 255 256 257 258 258 257
276 277 277 278 279 278 277 275 273 271 271 271 271 271 271 270 269 269 270 270 270 269 269 268 267 264 262 261 261 261 260 260 261 260 260 259 258 258 258 258 257 256 256 255 255 255 255 256 256 257 257 255 254 255 254 255 255 256 257 258 259 261 262
275 276 277 278 278 279 278 277 276 274 272 271 270 268 268 267 266 266 266 266 266 266 266 266 266 266 266 266 266 267 267 267 267 268 268 268 268 267 265 265 264 263 262 260 259 258 257 257 257 258 258 258 257 256 256 256 258 258 258 259 260 260 262
272 273 274 275 276 275 276 276 276 275 273 271 270 268 267 267 266 265 265 264 264 264 264 264 264 265 266 267 267 266 267 267 268 269 270 271 271 272 272 271 270 269 268 267 266 264 263 262 261 261 261 260 259 258 257 257 259 260 259 259 261 261 262
266 269 271 272 272 271 271 272 273 274 274 272 270 268 267 266 266 265 265 264 263 263 263 262 263 264 265 266 267 268 268 268 268 269 269 270 271 271 272 272 272 272 272 272 271 270 269 268 266 265 265 264 263 261 260 259 260 262 262 260 261 261 262
262 267 269 269 268 267 267 268 268 270 272 273 272 270 267 265 264 264 264 263 262 262 262 262 262 263 264 265 267 268 269 270 270 270 270 271 271 272 272 272 272 273 273 273 273 273 273 272 271 270 269 269 268 266 263 261 261 262 263 262 262 262 262
257 263 266 267 266 266 265 265 265 265 267 268 270 270 268 265 263 263 263 262 262 261 261 262 262 263 264 264 265 267 268 269 270 271 271 272 272 272 272 272 272 273 273 273 273 273 273 273 272 272 272 271 271 270 269 267 265 265 265 264 264 263 263
254 259 262 264 264 264 263 263 262 265 267 268 267 265 265 264 264 264 264 264 264 264 264 264 264 264 263 262 262 263 265 266 268 270 272 273 274 274 274 274 274 274 273 273 273 273 273 273 272 272 272 271 271 271 271 270 269 268 267 266 266 266 265
256 259 261 261 261 261 262 261 261 265 270 272 271 267 264 263 263 264 265 266 265 264 265 267 268 267 265 263 262 262 262 264 266 269 271 273 274 275 276 276 276 276 275 275 273 272 271 271 271 271 271 271 270 270 270 270 269 268 268 267 267 267 267
259 260 260 260 260 259 260 260 261 264 269 273 274 271 268 265 263 262 263 263 262 262 264 267 270 271 269 266 264 263 262 263 264 266 268 270 272 275 277 279 279 279 280 279 277 276 274 272 270 269 268 268 268 268 269 269 269 269 268 267 267 268 268
262 262 261 260 259 259 259 260 261 262 266 271 271 270 268 266 263 261 259 260 261 262 263 266 270 273 271 268 266 264 262 261 262 263 266 269 272 274 277 279 280 281 282 282 281 280 279 276 273 271 268 267 266 266 266 267 268 268 268 268 267 267 268
262 263 262 261 260 259 259 260 259 259 264 270 271 270 270 268 264 261 260 261 263 264 265 267 270 271 270 269 268 266 264 263 264 265 268 271 273 274 276 277 278 279 280 281 281 281 279 278 275 273 270 268 266 265 265 265 266 267 268 268 268 268 268
261 262 262 262 262 262 260 259 258 257 260 266 269 269 271 271 269 267 266 267 268 268 268 270 271 271 270 270 269 268 267 267 267 268 270 272 274 275 277 278 278 278 278 277 277 278 277 275 273 272 271 269 268 267 266 266 266 267 268 268 269 270 271
259 260 260 260 261 262 262 261 260 258 259 261 264 267 269 271 271 272 272 273 274 273 272 272 272 271 270 272 271 269 268 268 268 269 270 271 274 275 276 278 279 279 278 276 274 274 274 273 271 269 268 267 265 266 268 268 269 269 269 270 270 272 273
258 258 257 257 258 261 262 263 262 262 261 261 264 268 269 270 272 273 274 275 275 275 274 275 275 272 270 271 271 270 269 269 268 268 269 271 273 275 276 277 278 279 279 277 274 272 271 270 269 267 265 263 262 264 266 267 268 269 270 271 273 274 276
259 259 257 258 259 261 262 263 263 264 264 265 267 268 269 269 271 273 274 275 275 275 275 276 276 275 272 271 273 273 270 268 267 267 269 271 273 275 276 277 278 278 278 278 276 272 270 268 267 265 263 261 261 262 264 266 267 268 270 272 273 275 278
259 259 259 259 261 262 263 263 263 264 265 266 267 268 269 270 271 271 272 273 273 274 275 275 275 276 273 272 276 277 269 264 264 266 268 271 272 274 275 276 277 277 278 277 276 273 271 268 266 264 262 261 261 262 264 264 265 267 269 271 273 275 278
260 260 260 260 260 261 262 262 262 262 263 264 265 266 268 269 270 271 271 272 272 272 273 274 274 275 274 271 275 276 267 260 261 263 266 270 273 275 276 276 276 276 276 276 275 273 272 269 266 263 262 261 262 263 265 265 265 266 268 269 271 274 277
262 262 262 262 262 262 262 261 262 262 262 263 263 264 265 266 267 269 269 270 271 271 271 272 272 273 273 271 271 271 265 262 262 261 264 271 275 277 278 277 276 275 275 274 273 273 273 271 267 263 261 262 263 265 266 266 267 268 268 270 272 274 276
263 264 264 264 264 264 264 263 263 262 262 263 263 263 264 265 265 266 267 269 270 270 270 271 270 270 270 270 270 267 264 265 264 261 265 273 277 279 279 277 276 274 274 274 273 273 273 271 267 262 260 262 264 265 267 267 268 269 270 272 274 276 277
263 263 264 265 265 265 265 265 265 264 264 264 264 264 265 265 265 266 266 268 269 270 270 270 269 268 268 269 270 267 264 265 264 263 269 275 278 279 278 277 275 273 273 273 273 273 273 270 265 260 260 262 264 265 267 268 269 270 272 275 276 277 279
263 263 264 265 265 265 265 265 266 266 265 265 265 265 265 266 267 267 268 269 271 271 271 271 269 268 268 269 270 269 267 267 268 269 273 277 278 277 276 275 273 272 272 273 273 273 272 268 262 259 260 262 263 264 266 268 272 274 276 277 278 278 279
263 263 264 264 264 264 265 265 266 266 266 266 266 266 267 267 268 269 270 271 273 273 274 273 271 270 270 270 270 271 271 272 273 274 275 276 276 275 274 273 272 272 272 272 273 273 270 265 260 258 260 261 262 263 267 272 275 277 277 278 278 277 278
264 264 263 263 263 263 263 263 264 265 266 266 267 267 268 269 270 272 273 273 274 274 274 274 272 271 270 270 270 271 272 273 274 275 275 275 275 274 273 272 272 272 272 272 273 272 269 263 259 259 261 262 262 266 271 275 276 277 277 277 276 276 276
266 265 265 264 264 263 263 263 264 264 264 265 266 267 268 270 271 272 272 273 272 271 273 274 273 271 269 269 270 271 272 273 273 275 276 277 277 276 275 273 272 271 271 271 270 269 267 264 262 261 263 264 266 270 273 276 276 276 276 275 274 274 274
265 265 265 265 265 265 265 265 265 265 264 264 265 266 266 267 268 268 269 269 268 270 273 273 270 269 270 271 273 274 274 275 276 277 278 279 279 278 276 274 272 269 268 268 268 267 267 266 265 264 266 269 271 273 274 274 274 274 274 273 273 273 272
263 263 263 263 264 264 265 265 265 265 265 265 266 265 263 262 264 265 265 266 267 268 269 268 267 271 275 277 277 277 277 276 277 277 277 277 277 277 276 275 273 269 267 267 268 269 269 269 269 269 270 271 272 272 272 273 273 273 273 273 273 273 273
262 261 261 261 261 261 262 263 263 264 264 265 265 265 263 263 264 264 265 266 266 264 264 266 271 276 278 277 276 276 276 276 276 276 276 276 276 276 276 274 272 270 268 267 267 268 268 269 269 269 269 270 271 271 272 273 273 274 274 274 275 275 275
262 261 261 260 260 260 260 261 261 262 263 263 262 261 261 261 262 263 263 264 264 262 263 267 272 274 276 276 277 278 278 278 278 278 277 276 276 276 275 274 272 271 271 270 269 268 268 268 269 269 269 270 271 272 272 273 274 275 275 276 276 275 274